Palacios, TX

7:58 PM CDT on March 27, 2017 (GMT -0500)
Palacios Municipal

Weather History for KPSX - December, 2011

Change the Weather History Date:

Friday, December 9, 2011

  Actual Average Record
Temperature  
Mean Temperature 64 °F -  
Max Temperature 70 °F 68 °F 81 °F (2007)
Min Temperature 57 °F 49 °F 28 °F (1978)
Degree Days  
Heating Degree Days 2    
Growing Degree Days 14 (Base 50)    
Moisture  
Dew Point 57 °F    
Average Humidity 87    
Maximum Humidity 97    
Minimum Humidity 64    
Precipitation  
Precipitation 0.00 in - - ()
Sea Level Pressure  
Sea Level Pressure 30.22 in    
Wind  
Wind Speed 9 mph (ENE)    
Max Wind Speed 14 mph    
Max Gust Speed -    
Visibility 10 miles    
Events Rain    
Averages and records for this station are not official NWS values.
T = Trace of Precipitation, MM = Missing Value Source: NWS Daily Summary

Daily Weather History Graph

Daily Weather History Graph

Search for Another Location

Airport or City:

Trip Planner

Search our weather history database for the weather conditions in past years. The results will help you decide how hot, cold, wet, or windy it might be!

Date:

Astronomy

Dec. 09, 2011 Rise Set
Actual Time 7:06 AM CST 5:28 PM CST
Civil Twilight 6:40 AM CST 5:54 PM CST
Nautical Twilight 6:11 AM CST 6:23 PM CST
Astronomical Twilight 5:42 AM CST 6:52 PM CST
Moon 4:53 PM CST (12/9) 6:14 AM CST (12/9)
Length of Visible Light 11h 13m
Length of Day
10h 21m
Waxing Gibbous, 99% of the Moon is Illuminated
Dec 9
Waxing Gibbous
Dec 10
Full
Dec 17
Last Quarter
Dec 24
New
Jan 1
First Quarter

Hourly Weather History & Observations

Time (CST) Temp. Dew Point Humidity Pressure Visibility Wind Dir Wind Speed Gust Speed Precip Events Conditions
12:53 AM 57.9 °F 53.1 °F 84% 30.14 in 10.0 mi ENE 6.9 mph - N/A   Overcast
1:53 AM 57.9 °F 54.0 °F 87% 30.13 in 10.0 mi ENE 5.8 mph - N/A   Overcast
2:53 AM 57.0 °F 54.0 °F 89% 30.12 in 10.0 mi NE 4.6 mph - N/A   Overcast
3:53 AM 57.0 °F 55.0 °F 93% 30.12 in 10.0 mi North 4.6 mph - N/A   Overcast
4:53 AM 57.0 °F 55.0 °F 93% 30.12 in 10.0 mi North 4.6 mph - N/A   Overcast
5:53 AM 57.0 °F 55.0 °F 93% 30.12 in 10.0 mi NE 8.1 mph - 0.00 in   Overcast
6:53 AM 60.8 °F 57.2 °F 88% 30.15 in 10.0 mi East 9.2 mph - N/A Rain Light Rain
7:53 AM 59.0 °F 57.0 °F 93% 30.18 in 10.0 mi ENE 9.2 mph - 0.00 in   Overcast
8:53 AM 60.8 °F 57.2 °F 88% 30.20 in 10.0 mi ENE 9.2 mph - N/A   Mostly Cloudy
9:53 AM 63.0 °F 57.9 °F 84% 30.22 in 10.0 mi ENE 8.1 mph - N/A   Overcast
10:53 AM 64.9 °F 59.0 °F 81% 30.22 in 10.0 mi ENE 11.5 mph - N/A   Mostly Cloudy
11:53 AM 66.9 °F 59.0 °F 76% 30.21 in 10.0 mi East 11.5 mph - N/A   Overcast
12:53 PM 70.0 °F 59.0 °F 68% 30.19 in 10.0 mi East 11.5 mph - N/A   Clear
1:53 PM 69.1 °F 59.0 °F 70% 30.17 in 10.0 mi East 11.5 mph - N/A   Overcast
2:53 PM 69.8 °F 57.2 °F 64% 30.18 in 10.0 mi East 11.5 mph - N/A   Overcast
4:53 PM 64.9 °F 59.0 °F 81% 30.19 in 10.0 mi East 13.8 mph - N/A   Scattered Clouds
5:53 PM 62.1 °F 59.0 °F 90% 30.20 in 10.0 mi East 12.7 mph - N/A   Clear
6:53 PM 61.0 °F 60.1 °F 97% 30.23 in 10.0 mi East 9.2 mph - N/A   Scattered Clouds
7:20 PM 62.6 °F 60.8 °F 94% 30.24 in 10.0 mi ENE 10.4 mph - N/A   Mostly Cloudy
7:53 PM 62.1 °F 60.1 °F 93% 30.26 in 10.0 mi East 11.5 mph - N/A   Overcast
8:20 PM 60.8 °F 59.0 °F 94% 30.27 in 10.0 mi ENE 10.4 mph - N/A   Scattered Clouds
8:41 PM 60.8 °F 59.0 °F 94% 30.27 in 10.0 mi East 12.7 mph - N/A   Mostly Cloudy
8:53 PM 60.1 °F 59.0 °F 96% 30.28 in 10.0 mi ENE 10.4 mph - N/A   Mostly Cloudy
9:09 PM 60.8 °F 57.2 °F 88% 30.29 in 10.0 mi ENE 11.5 mph - N/A   Scattered Clouds
9:21 PM 60.8 °F 57.2 °F 88% 30.29 in 10.0 mi ENE 9.2 mph - N/A   Mostly Cloudy
9:53 PM 59.0 °F 57.0 °F 93% 30.30 in 10.0 mi ENE 13.8 mph - N/A   Overcast
10:10 PM 59.0 °F 55.4 °F 88% 30.31 in 10.0 mi ENE 12.7 mph - N/A   Overcast
10:53 PM 59.0 °F 55.0 °F 87% 30.32 in 10.0 mi ENE 11.5 mph - N/A   Overcast
11:53 PM 57.9 °F 54.0 °F 87% 30.33 in 10.0 mi ENE 10.4 mph - N/A   Overcast